Weather History for Philip, SD

Change the Weather History Date:

Friday, July 25, 2014

  Actual Average Record
Temperature  
Mean Temperature 78 °F 76 °F  
Max Temperature 91 °F 91 °F 110 °F (1963)
Min Temperature 64 °F 61 °F 48 °F (1950)
Degree Days  
Heating Degree Days 0 0  
Month to date heating degree days 16 3  
Since 1 June heating degree days 94 66  
Since 1 July heating degree days 16 3  
Cooling Degree Days 13 11  
Month to date cooling degree days 222 238  
Year to date cooling degree days 318 388  
Since 1 June cooling degree days 278 361  
Growing Degree Days 28 (Base 50)    
Moisture  
Dew Point 50 °F    
Average Humidity 52    
Maximum Humidity 84    
Minimum Humidity 19    
Precipitation  
Precipitation T in 0.05 in 0.33 in (1993)
Month to date precipitation 0.11 1.73  
Year to date precipitation 8.93 11.58  
Sea Level Pressure  
Sea Level Pressure 29.77 in    
Wind  
Wind Speed 11 mph (NNE)    
Max Wind Speed 21 mph    
Max Gust Speed 31 mph    
Visibility 10 miles    
Events      
T = Trace of Precipitation, MM = Missing Value Source: NWS Daily Summary

Daily Weather History Graph

Daily Weather History Graph

Search for Another Location

Airport:

Trip Planner

Search our weather history database for the weather conditions in past years. The results will help you decide how hot, cold, wet, or windy it might be!

Date:

Astronomy

Jul. 25, 2014 Rise Set
Actual Time 5:27 AM MDT 8:18 PM MDT
Civil Twilight 4:53 AM MDT 8:51 PM MDT
Nautical Twilight 4:10 AM MDT 9:34 PM MDT
Astronomical Twilight 3:19 AM MDT 10:24 PM MDT
Moon 4:29 AM MDT (7/25) 7:14 PM MDT (7/25)
Length of Visible Light 15h 58m
Length of Day
14h 51m
Waning Crescent, 1% of the Moon is Illuminated
Jul 25
Waning Crescent
Jul 26
New
Aug 3
First Quarter
Aug 10
Full
Aug 17
Last Quarter

Hourly Weather History & Observations

Time (MDT) Temp. Dew Point Humidity Pressure Visibility Wind Dir Wind Speed Gust Speed Precip Events Conditions
12:55 AM 73.0 °F 64.9 °F 76% 29.63 in 10.0 mi East 12.7 mph - N/A   Clear
1:55 AM 69.1 °F 64.0 °F 84% 29.62 in 10.0 mi NNE 3.5 mph - N/A   Clear
2:55 AM 71.1 °F 62.1 °F 73% 29.66 in 10.0 mi NNW 17.3 mph - N/A   Clear
3:55 AM 70.0 °F 60.1 °F 71% 29.68 in 10.0 mi NNW 17.3 mph - N/A   Clear
4:55 AM 68.0 °F 61.0 °F 78% 29.73 in 10.0 mi NNW 12.7 mph - N/A   Clear
5:55 AM 66.0 °F 55.0 °F 68% 29.78 in 10.0 mi WNW 11.5 mph - N/A   Clear
6:37 AM 66.9 °F 55.0 °F 66% 29.89 in 10.0 mi NNW 15.0 mph 20.7 mph N/A   Mostly Cloudy
6:55 AM 68.0 °F 55.0 °F 63% 29.82 in 10.0 mi NW 15.0 mph - N/A   Overcast
7:55 AM 72.0 °F 53.1 °F 51% 29.84 in 10.0 mi NNW 15.0 mph - N/A   Scattered Clouds
8:55 AM 77.0 °F 46.0 °F 33% 29.84 in 10.0 mi NNW 20.7 mph 26.5 mph N/A   Clear
9:55 AM 79.0 °F 42.1 °F 27% 29.85 in 10.0 mi NNW 19.6 mph 24.2 mph N/A   Clear
10:55 AM 81.0 °F 41.0 °F 24% 29.84 in 10.0 mi North 11.5 mph - N/A   Clear
11:55 AM 82.9 °F 42.1 °F 24% 29.84 in 10.0 mi North 11.5 mph 23.0 mph N/A   Clear
12:55 PM 86.0 °F 42.1 °F 21% 29.83 in 10.0 mi North 13.8 mph - N/A   Clear
1:55 PM 88.0 °F 42.1 °F 20% 29.81 in 10.0 mi North - - N/A   Clear
2:55 PM 90.0 °F 43.0 °F 19% 29.78 in 10.0 mi Variable 5.8 mph - N/A   Clear
3:55 PM 89.1 °F 41.0 °F 19% 29.76 in 10.0 mi East 4.6 mph - N/A   Clear
4:55 PM 90.0 °F 41.0 °F 18% 29.75 in 10.0 mi NE 5.8 mph - N/A   Clear
5:55 PM 89.1 °F 42.1 °F 19% 29.75 in 10.0 mi East 10.4 mph - N/A   Clear
6:55 PM 86.0 °F 43.0 °F 22% 29.75 in 10.0 mi East 12.7 mph - N/A   Clear
7:55 PM 81.0 °F 45.0 °F 28% 29.77 in 10.0 mi ESE 9.2 mph - N/A   Clear
8:55 PM 73.0 °F 48.0 °F 41% 29.78 in 10.0 mi East 6.9 mph - N/A   Clear
9:55 PM 73.9 °F 48.9 °F 41% 29.79 in 10.0 mi ENE 9.2 mph - 0.00 in   Clear
11:55 PM 64.9 °F 51.1 °F 61% 29.77 in 10.0 mi East 6.9 mph - N/A   Clear